Hourly Data Report for October 17, 2015

All times are specified in Local Standard Time (LST). Add 1 hour to adjust for Daylight Saving Time where and when it is observed.

PENTICTON A
BRITISH COLUMBIA

49°27'45.000" N
119°36'08.000" W
344.40 m
1126146
71889
YYF

Download Data

Hourly Data (October 2015)
Hourly Data Report for October 17, 2015
Temp Definition
°C
Dew Point Temp Definition
°C
Rel Hum Definition
%
Wind Dir Definition
10's deg

Wind Spd Definition
km/h
Visibility Definition
km
Stn Press Definition
kPa
Hmdx Definition


Wind Chill Definition


Weather Definition


TIME
00:00 Legend Double Dagger 4.8 2.7 86 4 8 24.1 97.49     LegendNANA
01:00 Legend Double Dagger 5.8 2.8 81 1 9 24.1 97.45     Mainly Clear
02:00 Legend Double Dagger 5.7 1.8 76 1 11 24.1 97.42     LegendNANA
03:00 Legend Double Dagger 5.6 1.5 75 36 12 24.1 97.38     LegendNANA
04:00 Legend Double Dagger 5.3 1.8 78 1 14 24.1 97.35     Mainly Clear
05:00 Legend Double Dagger 4.8 1.7 80 2 12 24.1 97.34     LegendNANA
06:00 Legend Double Dagger 4.3 0.8 78 36 10 24.1 97.32     LegendNANA
07:00 Legend Double Dagger 4.9 1.4 78 1 11 24.1 97.29     Mostly Cloudy
08:00 Legend Double Dagger 9.1 2.7 64 1 8 24.1 97.29     LegendNANA
09:00 Legend Double Dagger 11.6 5.9 68 36 13 24.1 97.22     LegendNANA
10:00 Legend Double Dagger 12.8 5.0 59 1 12 24.1 97.17     Mainly Clear
11:00 Legend Double Dagger 14.6 5.5 54 36 9 24.1 97.11     LegendNANA
12:00 Legend Double Dagger 15.6 4.4 47 36 11 24.1 97.04     LegendNANA
13:00 Legend Double Dagger 16.6 4.1 43 2 4 24.1 96.98     Mostly Cloudy
14:00 Legend Double Dagger 16.6 5.9 49 1 11 24.1 96.90     LegendNANA
15:00 Legend Double Dagger 16.1 5.5 49 3 5 24.1 96.84     LegendNANA
16:00 Legend Double Dagger 14.2 6.6 60 36 13 24.1 96.82     Mostly Cloudy
17:00 Legend Double Dagger 12.7 7.4 70 34 8 24.1 96.81     LegendNANA
18:00 Legend Double Dagger 11.4 6.6 72 35 11 24.1 96.83     LegendNANA
19:00 Legend Double Dagger 9.7 5.3 74 35 8 24.1 96.89     Mostly Cloudy
20:00 Legend Double Dagger 9.9 5.3 73 36 1 24.1 96.92     LegendNANA
21:00 Legend Double Dagger 9.6 5.8 77 1 7 24.1 96.96     LegendNANA
22:00 Legend Double Dagger 11.6 6.6 71 13 6 24.1 96.97     Mostly Cloudy
23:00 Legend Double Dagger 10.2 6.9 80 5 6 24.1 96.98     LegendNANA

Notes on Data Quality.

Legend

  • E = Estimated
  • M = Missing
  • NA = Not Available
  • ‡ = Partner data that is not subject to review by the National Climate Archives
Date modified: